Miscellaneous Local Product
Issued by NWS Hastings, NE

Home | Current Version | Previous Version | Graphics & Text | Print | Product List | Glossary On
Versions: 1 2 3 4 5 6 7 8 9 10 11 12 13 14 15 16 17 18 19 20 21 22 23 24 25 26 27 28 29 30 31 32 33 34 35 36 37 38 39 40 41 42 43 44 45 46 47 48 49 50
025
AXUS43 KGID 271902
MISGRI

GID CWA HOURLY WEATHER ROUNDUP
NATIONAL WEATHER SERVICE HASTINGS NE
200 PM CDT FRI MAY 27 2016

NOTE: "FAIR" INDICATES FEW OR NO CLOUDS BELOW 12,000 FEET WITH NO
SIGNIFICANT WEATHER AND/OR OBSTRUCTIONS TO VISIBILITY.

...SOUTH CENTRAL NEBRASKA...

CITY           SKY/WX    TMP DP  RH WIND       PRES   REMARKS
GRAND ISLAND   CLOUDY    66  59  78 E5        29.76F
HASTINGS       CLOUDY    67  58  72 E9        29.75F
KEARNEY        CLOUDY    64  57  77 E9        29.77F
ORD            CLOUDY    68  57  68 SE13      29.77S
YORK           CLOUDY    66  59  77 E6        29.76F
AURORA         CLOUDY    66  61  84 E9        29.76F
LEXINGTON      CLOUDY    62  57  82 E6        29.77F
HOLDREGE       CLOUDY    61  56  84 E14       29.76F
HEBRON         CLOUDY    69  60  75 NE10      29.74F

...NEBRASKA PANHANDLE...

CITY           SKY/WX    TMP DP  RH WIND       PRES   REMARKS
CHADRON        LGT RAIN  58  50  75 E12       29.87F
ALLIANCE       LGT RAIN  51  47  86 N8        29.89S
SCOTTSBLUFF    CLOUDY    59  46  62 E17G23    29.89F
SIDNEY         MOSUNNY   56  45  66 N21       29.88S

...WESTERN AND NORTH CENTRAL NEBRASKA...

CITY           SKY/WX    TMP DP  RH WIND       PRES   REMARKS
VALENTINE      CLOUDY    64  48  56 N14G21    29.84S
AINSWORTH      CLOUDY    64  53  65 NE14      29.82S
ONEILL         CLOUDY    67  57  70 N8        29.79S
BROKEN BOW     LGT RAIN  61  57  87 N8        29.81R
IMPERIAL       CLOUDY    59  54  83 N14       29.79S
NORTH PLATTE   CLOUDY    62  53  72 NE17      29.79F
MCCOOK         CLOUDY    58  56  93 E10       29.78R FOG

...EASTERN NEBRASKA...

CITY           SKY/WX    TMP DP  RH WIND       PRES   REMARKS
NORFOLK        MOSUNNY   70  55  59 S10       29.76F
SO SIOUX CITY  PTSUNNY   74  60  61 CALM      29.76S
TEKAMAH        PTSUNNY   75  56  51 SW6       29.74F
COLUMBUS       CLOUDY    72  54  53 SW5       29.77F
ALBION         CLOUDY    70  57  62 SW9       29.77S
OMAHA EPPLEY   PTSUNNY   74  60  61 SW7       29.75F
OFFUTT AFB     SUNNY     73  63  69 VRB1      29.75F
MILLARD        PTSUNNY   73  60  62 SE7       29.76S
LINCOLN        CLOUDY    73  60  63 CALM      29.76F
NEBRASKA CITY  SUNNY     73  62  69 N6        29.76S
BEATRICE       PTSUNNY   71  62  71 NE7       29.74F
FALLS CITY     MOSUNNY   76  64  66 CALM      29.74S

...NORTHERN KANSAS...

CITY           SKY/WX    TMP DP  RH WIND       PRES   REMARKS
GOODLAND       LGT RAIN  59  53  80 NE16      29.75F
HILL CITY      CLOUDY    62  59  90 E9        29.73F
NORTON         CLOUDY    57  54  88 E7        29.75R FOG
PHILLIPSBURG   DRIZZLE   61  61 100 NE5       29.74S
SMITH CENTER   CLOUDY    63  57  82 E7        29.73F
BELOIT         CLOUDY    68  61  77 E8        29.70F
HAYS           PTSUNNY   39 N/A N/A NE10      29.68F WCI  32
RUSSELL        PTSUNNY   71  65  81 SE10      29.67F
CONCORDIA      MOSUNNY   72  63  73 SE7       29.71F
SALINA         MOSUNNY   77  66  68 S15       29.70F
TOPEKA         TSTM      72  63  73 NE3       29.71F



USA.gov is the U.S. government's official web portal to all federal, state and local government web resources and services.